Погода в Бейре

Мозамбик     19°46′05″S   34°52′19″E
темп.,
°C
ветер,
м/с
пор.,
м/с
влажн.,
%
обл.,
%
осадки,
мм/ч
давл.,
гПа
погр.,
м
21 января, чт
чт2123:00+26ююв2390100 2.4 1011154
02:00+25юз239397 4.4 1011110
05:00+24юз349475 2.3 1012142
08:00+27ююв478663 6.1 1012691
11:00+28ююв6108442 5.4 10111049
14:00+30ююв8107049 6.1 10091334
17:00+27ююв7118073 0.8 10101089
20:00+26ююв6107867 0.9 1011873
22 января, пт
пт2223:00+25ю4981100 0.1 1011632
02:00+23ююз51087100 0.6 1010458
05:00+22юз51094100 1.8 1010453
08:00+23юз61192100 3.8 1010585
11:00+25юз61190100 2.2 1008816
14:00+25ююз81592100 5.9 10041018
17:00+24ююз101895100 16.3 10011251
20:00+24ююз111995100 48.3 9991215
23 января, сб
сб2323:00+25ю112092100 39.7 9961436
02:00+25ююз132196100 66.8 9911293
05:00+25ююз172792100 31.6 9901669
08:00+24зсз131995100 41.3 9911036
11:00+23с183194100 46.6 9941790
14:00+23с142494100 80.5 9941400
17:00+23с101993100 12.9 9951149
20:00+24ссв91790100 21.4 999906
24 января, вс
вс2423:00+25ссв91791100 1.3 10011023
02:00+24ссв71691100 2.8 1001764
05:00+24ссв61689100 0.6 1002844
08:00+27с61581100 0.6 1005923
11:00+29ссв81372100 0.0 10051195
14:00+30ссв81369100 0.0 10041410
17:00+26ссв8158196 0.1 1005915
20:00+25ссв6167998 0.4 1007814
25 января, пн
пн2523:00+24ссв41480100 0.0 1008631
02:00+24св41081100 0.1 1007525
05:00+23св51192100 2.4 1009483
08:00+25св51086100 3.1 1010618
11:00+27ссв6982100 0.6 1011837
14:00+26ссв5885100 1.1 1009681
17:00+26св4885100 0.7 1009555
20:00+24ссв41091100 0.7 1011500